Wind_Speed
9 8 7 8 9 9 10 11 8 7 9 11 10 7 6 7 5 3 6 9 7 4 5 7 8 7 8 6 8 10 11 13 15 14 13 13 12 12 12 13 16 17 17 18 21 22 22 21 20 19 19 19 19 20 20 21 21 22 23 24 25 26 26 26 26 25 25 27 29 29 30 29 27 24
11 10 8 8 8 8 9 10 9 8 10 11 12 10 8 9 8 6 7 8 6 4 4 3 4 6 8 6 5 7 8 11 14 13 13 13 12 12 12 14 17 17 17 18 21 23 22 22 21 20 19 19 20 20 20 21 22 23 24 24 25 26 26 26 26 25 25 26 28 29 30 29 26 24
10 11 11 10 10 8 7 7 7 8 10 10 11 10 8 10 11 9 9 10 8 7 8 3 4 6 6 5 3 4 7 10 12 13 15 15 13 12 12 14 17 18 18 18 20 22 23 22 21 20 20 20 20 20 21 21 22 23 24 24 24 25 26 26 26 25 25 26 28 29 30 29 27 23
9 11 12 13 13 12 11 10 9 9 11 9 9 9 8 11 13 12 12 13 11 10 9 6 3 2 4 6 6 7 8 9 11 13 15 14 13 13 13 14 17 18 18 18 19 21 22 21 20 20 20 20 21 21 21 21 22 23 23 23 24 25 25 26 26 25 25 25 27 29 30 29 27 24
10 11 12 13 14 14 13 13 13 10 10 11 9 10 10 11 12 11 11 12 13 12 12 10 8 7 9 9 8 10 9 9 10 12 13 11 11 13 14 15 17 18 17 17 18 20 21 20 20 20 19 20 21 21 21 22 22 22 22 23 24 24 25 26 26 25 25 25 26 28 30 29 27 24
12 12 13 14 14 13 13 14 14 12 10 11 11 9 10 11 11 10 10 11 12 13 12 11 10 8 8 8 9 11 10 10 11 11 12 11 9 10 14 16 17 16 16 17 18 20 21 19 19 19 19 20 22 22 21 21 21 21 22 22 23 24 25 25 25 25 24 24 25 26 29 29 27 24
13 14 15 15 13 12 12 12 13 13 12 12 12 11 12 11 9 10 12 13 13 13 12 11 11 8 7 9 11 11 12 12 12 12 13 13 10 8 11 14 15 15 15 17 18 19 20 20 19 19 18 19 22 22 21 20 20 21 21 22 23 23 24 25 25 25 24 24 24 25 28 29 27 24
14 15 15 15 13 12 12 12 13 13 14 16 15 14 13 12 9 10 13 13 14 15 14 13 12 10 10 12 12 12 13 12 12 12 12 13 13 11 11 11 12 14 15 17 17 18 19 19 19 19 20 20 22 23 21 19 19 20 21 22 22 23 24 25 25 24 24 23 23 24 26 28 27 24
14 15 16 15 14 13 13 14 15 15 15 16 17 17 15 14 13 15 15 14 15 16 16 14 13 12 13 13 13 13 13 12 12 11 12 13 13 13 13 11 11 13 15 15 16 18 19 18 18 20 21 21 23 24 22 19 19 20 21 22 23 23 24 24 24 24 24 23 22 23 24 27 27 25
15 16 16 15 15 15 14 15 16 16 15 15 17 18 17 17 18 20 20 19 19 19 18 16 15 14 14 14 15 14 13 13 13 14 15 14 11 10 11 11 11 13 14 15 17 18 17 17 18 19 21 22 24 25 23 20 19 20 21 22 23 23 24 24 24 23 23 22 21 21 23 25 26 25
15 15 16 16 16 16 16 17 17 17 16 16 16 17 17 17 19 20 20 20 21 21 19 18 17 17 16 16 14 11 10 12 15 17 17 14 12 11 13 13 11 11 14 17 19 19 17 17 19 19 20 22 24 24 24 21 19 20 22 23 23 23 23 24 23 23 23 22 21 20 21 23 25 25
15 15 15 16 17 17 18 18 18 17 17 17 17 17 17 19 20 20 19 19 20 20 21 20 20 20 18 15 13 12 13 15 16 16 15 14 13 12 14 15 12 12 15 17 18 19 18 19 20 21 21 22 24 23 23 21 19 20 23 23 23 23 23 23 23 23 23 22 21 19 20 21 23 24
16 16 16 16 17 18 19 18 18 18 18 18 18 17 18 19 20 21 21 21 20 20 21 22 21 20 18 16 17 17 16 15 14 13 14 15 14 13 15 16 15 16 17 17 16 17 19 20 21 22 22 23 24 23 22 21 19 20 22 24 24 23 23 23 23 23 22 21 20 19 18 20 21 23
17 16 17 17 17 18 20 20 20 19 19 19 19 19 19 19 20 21 22 23 23 22 22 23 22 21 21 20 19 18 16 14 14 14 15 15 13 12 15 18 19 20 18 17 17 17 17 20 22 23 24 23 22 22 22 21 21 22 22 23 25 24 22 23 23 22 22 21 20 18 18 19 20 21
19 18 17 17 18 18 20 21 21 21 22 21 21 21 21 21 21 22 23 23 23 23 23 24 24 24 24 22 19 17 16 15 15 14 15 14 13 13 18 22 24 22 19 18 19 19 19 21 23 22 21 21 21 21 21 21 23 23 22 23 25 23 22 22 23 22 21 20 19 18 17 18 19 20
21 21 20 19 18 17 19 21 22 23 24 23 23 22 22 23 24 24 25 25 25 24 24 25 25 25 24 22 19 17 17 16 15 16 18 18 19 20 23 25 24 23 19 17 19 22 23 22 21 19 16 16 19 20 21 21 22 23 22 23 24 22 21 22 22 22 21 20 18 17 17 17 18 20
22 22 22 22 21 19 19 19 21 24 24 24 23 22 21 22 24 26 28 29 29 29 28 28 28 27 26 25 23 21 20 20 21 22 23 23 24 25 25 24 24 22 20 18 22 25 23 19 17 18 16 14 16 19 21 21 21 22 22 23 23 21 21 23 23 22 21 19 18 17 16 16 17 18
23 23 23 24 25 24 23 22 21 22 23 24 25 24 24 24 25 26 28 30 32 33 33 33 33 31 30 29 28 27 26 26 26 26 27 27 26 26 24 24 23 22 22 22 23 24 21 17 16 19 17 15 16 18 19 20 21 22 22 23 23 21 22 23 23 22 21 18 17 16 15 15 15 16
25 25 24 25 25 26 26 25 25 24 24 24 25 26 27 28 29 28 28 29 31 33 34 35 35 33 32 32 31 30 29 29 29 29 29 28 27 26 26 26 25 25 25 22 20 21 21 17 18 20 18 16 17 17 18 20 21 22 22 22 22 21 22 23 23 22 20 18 16 15 14 14 14 15
27 27 27 27 27 27 27 27 27 26 26 26 27 28 30 32 34 34 32 30 30 31 32 34 34 34 33 32 32 31 31 31 30 30 30 29 28 28 29 30 29 28 26 22 18 21 21 18 19 21 18 17 18 18 18 20 19 19 20 20 20 21 23 23 22 21 19 17 16 14 14 14 14 14
29 30 30 30 30 31 31 31 30 29 28 29 30 30 32 34 36 37 36 34 33 32 32 32 32 33 32 32 31 30 30 30 30 30 31 31 30 29 30 31 32 30 28 24 20 20 21 20 20 20 19 19 20 19 19 18 18 18 18 19 20 21 22 22 21 21 19 17 15 14 13 13 13 13
31 31 32 33 33 34 35 35 34 33 32 33 33 34 34 35 37 38 36 35 35 35 34 33 32 31 31 30 29 28 28 28 27 29 31 31 31 32 32 32 33 31 31 28 22 21 24 23 21 20 20 19 19 19 18 17 18 18 19 20 21 21 22 22 21 20 19 18 16 14 13 12 12 12
33 32 31 32 34 36 38 38 38 37 36 36 37 38 37 38 40 40 38 36 36 36 35 34 33 33 33 32 31 30 29 28 28 30 31 30 31 33 35 34 33 32 32 29 23 21 23 23 20 18 17 17 17 19 19 19 19 20 20 21 21 21 22 21 20 20 19 18 17 13 11 11 12 11
34 33 32 32 32 34 36 38 39 40 40 40 40 40 39 41 43 42 39 38 38 37 36 36 36 35 35 33 32 32 31 31 32 32 31 30 30 32 33 33 34 35 32 27 23 22 21 20 20 18 17 19 20 20 21 21 21 22 22 22 22 22 23 22 21 20 18 18 17 13 10 10 11 11
34 33 33 33 34 33 34 35 36 37 39 40 42 42 43 45 46 44 42 41 40 39 38 38 37 37 36 35 35 35 36 36 36 34 33 32 30 31 33 33 34 35 30 22 20 23 23 22 23 22 22 23 23 22 23 24 24 23 23 23 23 23 23 22 21 19 19 19 17 13 10 9 9 10
34 34 33 32 32 33 33 33 32 33 33 34 37 40 42 44 45 45 45 44 43 42 41 39 37 36 36 36 36 36 36 36 35 34 34 32 30 29 29 29 30 30 27 20 17 20 22 23 25 25 25 26 26 25 25 25 25 24 23 24 25 24 22 22 21 20 19 19 16 12 10 8 8 9
33 33 32 30 30 32 33 34 34 33 32 31 33 34 35 38 41 43 46 46 45 44 44 42 41 39 37 37 36 36 35 33 32 31 30 30 30 28 27 27 28 29 28 24 21 22 23 25 26 26 27 28 28 28 27 26 25 26 26 26 25 25 23 22 22 22 20 17 14 12 11 9 8 9
33 33 32 32 32 34 36 36 37 37 34 32 32 33 32 31 34 38 42 45 46 46 45 45 45 44 42 41 39 38 36 34 32 30 29 29 30 31 30 30 30 31 30 28 26 26 27 27 28 28 29 30 30 30 30 27 26 27 27 25 24 26 25 23 24 25 23 19 16 14 13 11 9 9
34 35 36 35 34 36 37 38 39 39 38 35 34 34 32 29 29 33 37 40 43 46 47 47 48 48 48 46 45 43 40 38 35 33 32 31 31 32 32 33 33 32 32 31 30 29 30 31 31 30 30 31 31 31 30 29 27 26 26 26 26 27 26 24 24 25 24 22 20 17 15 12 11 12
33 35 36 34 34 34 36 37 39 40 40 39 37 35 33 30 30 32 35 36 39 43 46 47 49 50 49 48 47 46 45 45 43 41 39 37 35 35 34 35 35 36 35 35 34 33 34 34 34 32 31 31 31 31 31 30 29 28 28 28 28 27 27 27 27 26 25 23 22 21 17 14 13 13
31 32 31 31 31 32 33 36 39 40 40 40 39 37 35 34 33 33 35 37 39 41 43 46 48 49 49 48 47 47 47 47 48 46 45 44 43 41 39 38 38 38 38 38 38 37 36 35 34 33 33 32 32 32 31 31 31 30 29 29 28 28 29 28 28 28 26 23 22 23 20 17 16 15
29 29 30 29 28 29 30 34 37 39 40 40 40 39 37 35 34 33 34 38 41 42 43 45 46 48 48 48 48 48 47 48 48 46 45 45 45 43 41 41 41 40 39 38 38 37 37 36 35 34 33 33 33 32 31 32 32 31 31 30 29 29 30 30 30 30 28 25 25 25 23 19 18 17
27 29 31 28 24 23 26 28 31 34 37 39 39 39 37 35 33 33 34 37 42 44 46 48 49 49 48 48 48 48 48 49 49 46 44 44 43 41 40 41 42 41 40 39 38 37 37 37 36 35 33 33 33 33 33 34 33 31 31 31 30 30 32 33 33 32 31 30 29 27 25 22 21 19
26 28 29 27 23 22 22 22 21 24 28 33 36 38 37 35 34 33 32 33 36 39 41 45 49 50 50 50 49 48 49 50 49 46 45 43 42 40 40 41 42 42 41 40 39 37 36 36 35 33 31 31 32 33 34 34 34 33 32 32 31 31 32 33 34 34 34 33 30 28 26 24 23 22
27 28 29 29 28 26 24 20 18 18 20 24 30 35 38 37 36 35 33 31 31 32 35 39 43 46 49 51 51 50 50 50 48 46 44 42 41 41 41 42 43 42 41 40 39 37 36 36 34 32 31 32 33 35 35 34 33 34 34 34 33 32 32 33 34 35 35 33 31 30 28 26 25 24
32 32 34 35 33 31 28 25 24 24 23 23 26 29 34 36 37 37 35 33 31 32 34 38 43 46 46 47 50 51 50 49 47 45 43 42 41 42 42 44 44 43 42 42 40 38 36 36 35 34 33 33 34 37 38 36 34 34 35 35 35 34 34 34 35 36 37 36 34 33 31 29 27 25
36 36 38 39 38 36 34 33 32 30 29 29 28 29 31 33 34 35 35 34 34 35 35 39 46 50 48 45 45 46 46 47 47 46 45 43 42 41 42 44 44 43 43 43 41 39 38 37 36 36 36 35 36 40 41 39 36 35 35 35 35 35 35 35 36 37 39 39 38 36 34 31 29 27
37 37 39 41 41 40 39 38 38 36 34 34 35 35 35 34 35 35 35 35 37 38 39 42 48 52 51 47 43 42 41 41 43 45 45 44 42 42 42 43 43 42 42 42 41 40 39 38 38 38 38 38 39 41 42 40 40 38 37 36 35 34 34 37 38 39 40 40 40 38 36 33 30 28
34 35 37 39 40 40 40 40 40 38 35 35 37 39 38 36 36 36 37 37 39 40 43 46 49 52 53 50 46 42 40 38 39 40 41 41 42 42 42 43 42 41 40 40 40 40 40 40 40 40 40 42 43 44 43 41 41 40 37 35 33 32 32 35 38 40 40 40 40 39 37 34 31 28
31 33 34 35 36 36 36 37 38 38 35 33 34 36 37 37 37 38 39 39 40 41 46 51 52 52 54 52 47 43 41 39 39 39 39 39 39 40 40 41 41 41 40 40 40 40 40 41 41 40 41 42 44 44 42 41 40 39 38 37 36 33 32 33 35 38 40 40 40 39 38 37 35 32
29 31 31 32 33 33 33 33 35 36 36 35 35 35 36 37 39 39 39 40 40 43 50 55 55 51 50 49 46 44 43 41 39 39 39 39 39 39 39 39 40 39 39 40 41 41 41 41 40 39 39 39 40 41 42 42 42 41 41 41 39 37 34 33 34 36 38 38 39 39 40 39 38 36
23 25 27 28 29 30 30 30 32 33 33 33 33 34 36 38 39 38 37 38 41 45 51 55 53 48 44 40 38 37 37 36 37 37 38 38 39 38 38 39 40 40 40 41 41 42 41 40 39 38 38 38 38 40 42 44 45 44 42 42 41 39 37 35 35 35 37 38 39 40 40 39 38 38
19 20 22 23 25 26 26 28 30 31 32 33 33 33 33 33 34 35 36 36 39 44 48 49 46 39 33 29 28 29 32 35 38 38 38 39 39 38 38 38 38 38 38 40 41 42 42 40 39 39 40 40 40 41 42 43 44 44 42 41 42 41 39 37 35 35 37 40 42 43 43 41 40 41
22 22 22 22 24 26 28 29 28 28 29 31 33 34 33 31 30 33 36 37 39 41 43 42 40 36 32 30 30 32 35 38 39 39 39 40 40 40 41 40 39 38 37 38 39 41 41 41 39 39 40 42 42 42 42 42 44 45 44 42 41 42 42 40 37 35 37 41 44 45 46 46 45 44
27 27 27 26 26 27 29 31 31 28 27 28 30 32 33 32 32 33 34 35 37 39 39 38 38 37 36 35 34 32 32 34 36 37 38 39 40 41 42 43 42 41 40 40 41 41 41 42 40 40 41 43 44 43 43 43 43 44 43 41 41 42 42 41 39 38 39 42 44 46 48 49 48 46
Wind_Direction
196 222 235 226 201 188 211 215 203 218 226 218 212 207 214 229 225 164 182 195 193 206 228 227 242 292 327 339 358 359 350 343 337 335 340 340 347 355 356 0 2 5 10 10 7 3 359 358 358 359 0 0 2 4 7 8 8 9 10 9 9 8 8 7 6 5 2 0 2 5 5 3 2 0
198 210 225 251 233 202 226 224 202 233 243 221 212 203 208 228 215 188 193 195 186 185 192 212 270 316 335 346 4 354 327 314 317 332 342 335 341 352 352 353 354 355 359 0 1 359 356 354 354 355 357 358 358 359 2 4 6 8 9 7 8 8 8 7 6 6 4 1 2 4 6 4 3 2
209 212 207 226 241 222 228 234 225 258 262 229 209 200 214 232 217 210 211 203 203 191 177 193 314 331 330 321 323 297 283 299 317 333 336 335 346 351 347 345 343 346 349 348 351 353 351 351 351 352 354 355 357 357 357 0 2 6 7 6 6 7 8 8 7 7 5 3 2 4 7 6 4 4
218 231 218 212 225 223 218 216 214 244 267 248 207 196 232 241 221 219 225 222 223 209 201 231 268 272 272 271 280 279 280 306 322 328 330 335 346 346 341 333 330 338 342 339 343 345 346 349 350 351 352 354 357 356 356 358 358 2 4 3 5 7 8 8 7 7 6 4 2 3 7 7 6 6
213 238 241 229 228 228 225 218 206 216 250 254 225 206 228 245 236 229 229 231 236 231 231 242 236 238 256 259 272 284 294 307 309 316 326 338 354 344 327 319 322 331 335 333 337 338 341 346 347 348 351 354 357 356 355 356 355 358 1 1 3 6 8 8 7 7 7 6 3 3 5 8 7 6
212 223 238 243 240 236 235 228 217 216 229 249 257 239 226 234 238 242 248 247 246 243 241 241 238 248 267 269 267 278 297 308 309 320 328 339 354 329 308 311 321 328 329 328 331 332 336 341 343 346 351 354 356 354 353 353 353 355 357 359 2 5 7 7 6 6 7 6 4 3 4 7 7 6
224 223 232 242 246 241 242 240 230 222 216 225 248 259 257 254 239 239 260 266 261 257 250 245 242 243 259 265 264 278 297 307 313 321 322 327 331 306 295 307 317 322 322 321 324 327 330 336 341 345 346 348 352 352 350 349 350 352 355 356 0 5 7 6 6 6 7 6 5 4 4 5 7 7
237 236 239 244 245 237 240 251 246 233 219 214 220 232 250 263 250 236 252 265 265 260 253 249 249 246 252 260 271 287 296 300 304 306 308 315 316 306 303 309 310 312 313 315 321 323 324 331 337 341 343 344 348 348 347 346 347 351 353 354 358 3 5 5 4 4 6 6 5 4 4 4 5 7
243 246 247 248 248 238 233 243 251 248 234 221 220 221 224 235 237 231 234 245 255 258 256 253 253 256 262 271 282 292 297 299 297 295 300 305 301 297 301 308 309 311 313 317 319 319 323 328 331 334 338 341 343 343 342 343 345 349 351 352 356 2 3 2 3 4 5 5 4 5 5 3 3 5
242 246 250 251 251 247 239 237 245 253 249 235 229 227 225 229 236 237 237 240 247 255 261 262 261 263 271 280 288 295 300 299 298 302 308 310 307 300 300 306 309 312 318 321 319 320 324 324 324 328 332 333 335 336 337 341 345 347 350 351 354 0 1 359 0 2 3 3 4 5 5 3 2 3
245 245 249 252 252 251 248 243 242 247 252 249 240 234 233 236 241 246 249 250 252 255 260 265 267 268 274 282 291 298 296 291 295 302 306 312 321 318 311 315 320 316 316 319 320 322 323 320 319 323 325 325 326 329 332 337 341 345 348 349 352 357 359 357 359 1 1 1 2 5 5 4 2 2
248 248 250 253 254 255 255 254 251 248 249 254 252 247 241 239 240 243 246 251 256 260 262 264 267 272 276 278 277 274 273 279 289 298 304 314 319 310 303 311 321 316 311 313 313 312 313 313 315 318 320 319 320 322 328 331 333 338 343 346 350 354 355 355 357 359 359 358 1 4 5 4 2 0
248 248 248 249 252 257 261 264 264 258 252 251 254 256 255 252 249 246 244 245 249 256 261 264 267 270 271 267 266 271 278 288 298 304 304 304 300 294 296 305 311 311 311 312 307 299 299 303 308 312 314 316 317 318 322 327 329 331 337 343 346 349 351 352 354 358 357 356 359 1 3 4 2 359
247 249 250 251 252 256 262 269 273 272 266 259 254 253 255 257 258 257 255 252 249 249 254 258 260 261 261 263 269 279 288 294 297 297 295 294 292 290 294 298 302 306 310 310 307 302 300 302 304 307 309 313 315 316 319 325 327 327 332 338 342 345 347 348 351 355 354 354 357 359 1 4 2 359
242 245 249 253 255 257 261 266 272 275 276 273 267 259 255 254 255 257 259 259 256 253 252 255 257 258 262 268 272 276 279 279 281 281 279 281 279 277 283 290 297 305 309 305 304 311 316 310 307 309 310 308 308 313 318 322 324 325 327 331 336 340 342 344 348 351 351 352 355 357 359 3 2 359
244 245 246 249 252 256 260 264 267 268 272 277 278 274 266 260 256 254 255 258 260 259 257 257 259 261 264 268 268 268 269 269 268 265 264 266 269 274 282 288 294 303 307 298 296 309 319 315 307 311 318 309 302 307 313 316 319 320 320 325 330 334 338 341 344 347 348 349 353 355 358 2 2 359
248 249 250 251 250 251 254 261 269 272 275 279 282 283 279 271 264 258 256 257 259 260 261 260 261 264 266 266 265 263 261 261 263 266 270 274 278 283 287 290 295 301 300 292 289 301 315 315 305 310 321 315 301 302 308 310 313 314 315 319 323 327 334 338 341 343 345 346 350 353 357 1 1 359
249 250 253 256 257 256 254 256 263 272 276 278 279 279 279 277 274 268 263 260 260 261 262 263 264 266 267 267 269 269 267 267 270 274 279 282 285 289 290 290 293 294 294 294 291 296 310 316 305 308 317 312 301 300 303 305 307 308 310 313 316 319 328 334 338 340 340 342 347 350 355 360 0 359
250 251 252 255 258 261 262 261 260 262 266 270 273 274 275 276 276 275 272 269 268 267 267 269 271 272 272 272 273 274 274 274 276 279 283 284 286 287 286 286 289 291 294 298 291 291 307 315 305 305 308 299 293 296 296 297 301 303 305 308 310 315 323 331 336 337 336 338 342 346 353 356 357 359
248 250 252 254 255 256 259 261 262 261 261 263 266 269 272 275 277 278 279 278 276 275 273 274 275 277 278 277 277 277 276 276 278 280 281 281 282 283 284 286 290 292 296 299 290 284 295 302 297 299 300 290 288 294 294 296 299 300 301 305 307 312 319 327 333 335 334 334 338 344 350 352 354 358
251 249 249 251 254 255 255 256 258 260 260 260 261 263 267 271 274 278 281 282 282 282 280 279 279 279 279 279 278 278 276 276 277 275 272 274 275 276 278 282 286 289 292 294 289 279 282 290 293 294 293 288 288 293 296 299 300 300 300 302 305 310 316 322 328 332 334 333 334 340 345 346 350 354
261 257 254 252 253 255 256 257 256 256 258 259 261 262 263 265 268 271 275 278 281 284 284 283 283 282 280 279 278 276 274 273 272 269 269 272 271 267 268 273 278 282 284 287 283 272 275 283 287 286 286 287 287 290 293 296 297 297 298 299 303 308 312 316 319 324 331 333 331 335 340 341 344 349
264 264 262 259 256 256 257 258 258 258 258 259 261 263 263 264 266 269 269 271 274 277 279 280 280 280 280 279 278 276 275 273 271 269 270 272 270 266 268 271 272 272 278 285 282 270 271 278 280 279 279 279 280 282 284 286 289 292 294 297 301 304 307 310 311 315 325 330 327 328 333 333 336 343
262 264 264 263 262 261 260 261 262 262 261 261 261 262 262 263 268 271 269 269 270 272 273 275 276 276 277 276 275 274 272 272 272 272 271 271 269 267 269 271 270 270 277 286 280 267 265 268 268 268 267 268 272 275 277 280 284 287 291 294 297 300 302 304 305 308 317 323 321 321 325 326 328 333
261 262 264 264 264 264 264 264 265 265 266 266 265 264 264 267 272 273 270 269 270 270 271 272 273 273 274 273 272 272 272 272 272 272 271 270 268 267 269 271 270 271 277 285 278 267 263 260 260 264 267 267 267 268 273 278 282 284 288 291 292 294 296 298 300 303 311 317 315 313 314 317 318 318
261 263 265 266 266 265 264 263 263 263 266 268 268 269 270 271 272 272 271 270 269 269 270 270 268 269 270 270 271 271 272 273 274 274 275 276 274 270 269 271 271 274 281 288 279 268 262 259 259 262 263 264 266 268 271 277 281 282 284 286 288 290 291 293 295 298 307 313 310 305 305 307 305 304
259 261 262 262 262 261 261 262 263 263 263 264 267 269 272 274 274 272 270 269 268 268 268 267 265 264 264 265 266 267 267 269 270 272 276 281 282 280 277 276 276 280 286 288 281 272 266 263 262 262 261 262 266 268 271 274 276 279 282 286 288 289 289 292 294 296 303 308 303 298 299 297 292 291
258 259 258 259 261 261 259 260 263 264 263 263 267 267 267 271 275 272 269 267 266 266 266 265 264 263 262 261 261 262 263 264 265 266 267 269 274 277 278 277 278 280 282 281 278 274 272 269 269 269 268 266 265 267 271 273 273 276 281 283 282 283 285 288 290 293 297 300 298 297 296 290 283 280
256 258 259 261 264 264 262 259 260 262 262 263 267 267 265 265 268 269 269 267 265 264 263 263 263 264 263 262 261 260 260 259 259 260 261 261 262 264 267 270 271 271 272 272 271 271 271 272 274 274 271 269 268 269 272 273 271 271 272 272 274 279 282 281 281 285 289 291 295 298 293 283 277 275
255 256 259 263 265 265 263 260 258 260 261 263 264 263 262 261 262 265 268 268 265 264 264 263 262 263 263 264 264 262 260 258 258 258 258 259 258 257 259 262 263 264 265 265 266 266 267 270 272 272 270 269 270 271 273 273 271 268 268 269 270 273 274 274 275 277 278 281 289 295 291 279 272 270
260 261 263 265 265 264 262 259 257 257 258 260 261 260 259 261 261 261 265 269 270 269 267 266 265 264 263 262 262 262 262 262 262 262 261 260 259 258 258 259 260 261 262 263 264 265 266 268 270 270 269 269 269 272 273 270 267 266 266 266 266 267 270 272 272 274 274 275 282 288 286 276 271 269
261 261 261 259 259 260 261 259 256 254 254 256 259 259 257 259 261 261 263 267 271 272 272 270 268 266 264 261 260 260 261 263 264 264 263 262 262 262 260 258 258 259 260 260 261 262 264 267 268 268 269 269 269 271 270 267 265 264 263 262 259 261 265 268 268 270 272 271 275 280 280 273 267 264
258 256 254 252 254 260 262 259 255 253 253 255 257 258 258 259 261 262 263 265 269 272 273 271 269 266 264 261 259 258 258 260 261 262 262 262 263 263 260 258 257 258 257 257 259 260 261 263 264 265 267 268 268 268 266 264 264 264 262 260 257 255 259 263 264 266 267 267 269 274 275 270 263 259
260 258 255 253 255 260 261 258 257 257 258 259 259 261 263 264 265 265 266 268 271 273 273 271 268 265 262 259 258 257 256 257 259 258 258 258 259 259 257 257 257 257 256 257 258 259 261 263 263 263 264 264 265 264 263 262 263 264 262 260 258 256 255 257 259 262 264 266 267 269 270 267 261 258
262 265 266 263 261 261 261 261 265 271 272 269 266 264 264 266 266 265 264 265 268 272 274 273 271 267 261 258 256 255 255 256 257 257 256 255 254 254 254 255 257 257 256 256 257 258 260 260 259 257 256 257 258 260 261 261 261 260 259 258 258 256 253 252 255 258 261 262 263 264 265 262 258 256
263 268 273 272 269 267 267 269 274 274 272 272 272 270 267 266 264 263 264 263 263 264 267 269 270 269 264 260 256 254 254 254 255 255 254 252 251 251 252 253 254 255 255 256 256 256 255 255 254 251 249 248 249 254 260 264 262 259 257 258 259 258 253 250 251 254 256 258 259 260 260 261 260 257
263 268 273 276 275 273 271 272 274 271 267 269 274 277 275 272 267 265 266 265 263 263 264 265 265 264 263 261 258 256 254 253 253 253 253 251 250 250 250 252 253 254 254 255 255 254 252 251 251 248 245 242 242 249 259 266 265 261 258 256 257 257 254 249 247 250 254 256 257 258 259 259 261 262
260 263 268 272 275 276 276 275 274 272 271 273 277 279 279 277 272 268 266 264 262 263 265 264 260 257 256 256 256 256 255 253 252 252 252 251 249 248 248 250 252 253 254 255 254 253 251 250 248 246 243 241 241 247 256 261 263 266 267 262 259 258 254 249 247 249 253 254 255 256 258 258 260 263
256 260 263 267 271 274 277 279 280 278 275 274 275 276 276 273 269 265 263 262 261 260 260 260 257 252 249 250 252 252 252 253 252 252 252 251 249 248 248 249 250 251 253 254 254 253 251 249 247 246 244 244 247 252 258 261 264 270 271 266 262 261 256 251 248 248 251 253 252 251 252 253 254 254
257 257 259 262 266 270 275 281 284 284 279 275 273 272 270 268 265 262 260 261 261 259 258 258 255 248 245 246 248 249 249 251 252 253 253 253 251 250 248 248 248 249 249 251 252 252 251 250 249 249 250 252 255 259 261 261 262 264 264 262 262 262 258 255 252 249 249 251 250 248 248 247 245 241
265 262 260 260 262 265 270 277 282 283 281 279 277 272 267 266 265 264 263 265 265 262 258 255 251 246 243 245 247 247 248 249 250 251 253 253 252 251 250 249 248 248 248 248 249 250 251 253 254 254 253 252 254 256 256 254 254 256 258 261 263 261 257 256 256 255 254 253 251 248 246 245 243 239
276 273 269 265 264 267 272 277 280 280 279 279 280 276 271 269 270 270 270 271 269 265 259 254 250 247 246 247 247 247 248 252 254 255 255 254 254 253 253 251 250 249 248 249 250 252 254 254 255 255 254 252 252 253 252 252 253 253 254 258 261 261 257 253 252 254 256 255 254 251 246 239 234 232
273 273 271 268 265 265 268 272 275 274 272 272 275 276 275 274 274 274 273 271 267 264 260 257 256 256 257 259 261 261 262 264 265 263 260 259 260 259 258 257 255 254 253 255 257 260 259 257 254 254 254 254 254 254 254 254 255 254 253 255 258 261 260 255 250 248 250 252 255 257 255 248 243 241
259 260 261 261 260 258 259 261 264 266 266 265 265 268 269 269 268 267 267 266 264 264 264 266 268 271 274 275 274 271 269 269 269 268 266 265 266 265 263 262 261 260 260 260 261 262 261 259 256 253 253 253 254 254 254 255 255 254 251 251 254 258 260 259 253 246 244 245 248 251 252 252 253 255
254 255 255 257 258 257 256 257 258 260 262 263 263 264 265 265 263 262 263 264 264 267 271 275 276 276 276 275 274 273 271 270 270 270 270 271 272 272 270 266 265 264 262 261 260 260 260 258 255 252 251 253 253 254 254 256 256 254 251 250 251 254 257 258 256 251 248 249 250 249 247 247 249 251
Height
1603 1604 1604 1605 1605 1606 1606 1606 1606 1606 1606 1607 1607 1608 1608 1608 1608 1608 1608 1609 1610 1611 1611 1610 1609 1610 1610 1609 1608 1607 1607 1606 1606 1606 1605 1603 1603 1603 1602 1601 1600 1600 1598 1597 1596 1594 1593 1591 1590 1588 1587 1585 1584 1583 1581 1580 1578 1576 1574 1572 1570 1568 1565 1563 1560 1558 1555 1552 1549 1547 1544 1541 1539 1536
1602 1603 1604 1604 1605 1605 1605 1606 1606 1606 1606 1607 1607 1607 1607 1607 1608 1608 1607 1608 1608 1609 1610 1610 1609 1609 1609 1608 1608 1608 1607 1607 1606 1606 1605 1603 1602 1602 1601 1601 1600 1599 1598 1597 1595 1594 1592 1591 1590 1588 1587 1585 1584 1582 1581 1579 1578 1576 1573 1572 1570 1568 1565 1563 1560 1558 1555 1552 1549 1547 1544 1541 1539 1536
1602 1602 1604 1604 1604 1605 1605 1606 1606 1606 1606 1606 1607 1607 1607 1607 1607 1607 1607 1607 1607 1607 1608 1609 1609 1609 1608 1608 1608 1608 1607 1607 1606 1605 1604 1603 1602 1601 1601 1600 1599 1598 1597 1596 1595 1593 1592 1591 1589 1588 1586 1585 1584 1582 1581 1579 1577 1575 1574 1572 1570 1568 1565 1563 1560 1558 1555 1552 1549 1547 1544 1541 1539 1536
1601 1602 1603 1604 1604 1604 1605 1605 1606 1606 1606 1606 1606 1607 1607 1607 1607 1607 1607 1607 1607 1607 1607 1607 1608 1609 1608 1608 1608 1607 1607 1606 1605 1604 1603 1602 1601 1600 1600 1599 1599 1598 1597 1595 1594 1593 1592 1590 1589 1587 1586 1585 1583 1582 1580 1579 1577 1575 1574 1572 1570 1568 1565 1563 1560 1558 1555 1552 1550 1547 1544 1541 1539 1537
1601 1602 1602 1602 1603 1603 1604 1604 1605 1606 1606 1606 1606 1606 1607 1607 1606 1607 1607 1607 1607 1607 1607 1607 1607 1607 1607 1607 1607 1606 1606 1605 1604 1603 1603 1602 1601 1599 1599 1599 1598 1597 1596 1595 1593 1592 1591 1590 1589 1587 1586 1584 1583 1581 1580 1578 1577 1575 1574 1572 1570 1568 1565 1563 1560 1558 1555 1553 1550 1547 1544 1542 1539 1537
1600 1601 1601 1602 1602 1602 1603 1603 1604 1605 1605 1606 1606 1606 1606 1606 1606 1606 1606 1607 1606 1606 1606 1606 1606 1606 1606 1606 1606 1605 1604 1604 1603 1602 1602 1601 1600 1599 1598 1597 1597 1596 1595 1594 1593 1592 1591 1589 1588 1587 1586 1584 1582 1581 1579 1578 1577 1575 1573 1572 1570 1568 1565 1563 1560 1558 1555 1553 1550 1547 1545 1542 1540 1538
1599 1600 1600 1601 1601 1602 1602 1602 1603 1604 1605 1605 1606 1606 1606 1606 1606 1606 1606 1606 1606 1606 1605 1605 1605 1605 1605 1605 1604 1604 1603 1602 1602 1601 1600 1600 1600 1599 1598 1597 1595 1595 1594 1593 1592 1591 1590 1589 1587 1586 1585 1584 1582 1581 1579 1578 1577 1575 1573 1572 1570 1567 1565 1563 1560 1558 1555 1553 1551 1548 1545 1543 1541 1539
1598 1599 1600 1600 1601 1601 1602 1602 1602 1603 1604 1604 1605 1605 1605 1605 1606 1606 1606 1605 1605 1605 1604 1604 1604 1604 1604 1603 1603 1603 1602 1601 1601 1600 1599 1599 1598 1598 1597 1596 1595 1594 1593 1592 1591 1590 1589 1588 1587 1585 1584 1583 1582 1581 1579 1578 1576 1575 1573 1571 1569 1567 1564 1563 1560 1558 1555 1553 1551 1548 1546 1543 1541 1539
1598 1598 1599 1600 1600 1601 1601 1602 1602 1602 1603 1603 1604 1604 1605 1605 1605 1605 1605 1605 1604 1604 1603 1603 1603 1603 1603 1602 1602 1601 1600 1600 1600 1599 1599 1598 1597 1596 1596 1595 1594 1593 1592 1591 1590 1589 1588 1587 1586 1585 1583 1582 1581 1580 1579 1577 1576 1574 1572 1571 1569 1566 1564 1562 1560 1558 1555 1553 1551 1549 1546 1544 1542 1540
1597 1598 1598 1599 1600 1600 1601 1601 1602 1602 1602 1603 1603 1603 1604 1604 1604 1604 1604 1604 1603 1603 1602 1602 1602 1602 1601 1601 1600 1600 1599 1599 1598 1598 1597 1597 1596 1595 1594 1594 1593 1592 1590 1590 1589 1588 1587 1586 1585 1584 1582 1581 1580 1579 1578 1577 1575 1573 1572 1570 1568 1566 1564 1562 1560 1558 1555 1553 1551 1549 1547 1545 1542 1540
1596 1597 1598 1598 1599 1599 1600 1600 1601 1602 1602 1602 1603 1603 1603 1604 1604 1603 1603 1603 1603 1602 1601 1601 1601 1600 1600 1600 1599 1599 1598 1598 1597 1596 1596 1595 1594 1593 1593 1593 1592 1591 1589 1588 1587 1586 1585 1584 1583 1582 1581 1580 1579 1578 1576 1575 1574 1573 1571 1570 1568 1565 1564 1562 1560 1557 1555 1554 1552 1550 1547 1545 1543 1541
1595 1596 1597 1598 1598 1599 1599 1600 1600 1601 1601 1602 1602 1602 1603 1603 1603 1603 1603 1602 1602 1601 1600 1600 1600 1599 1599 1599 1598 1598 1598 1597 1596 1595 1595 1593 1592 1592 1592 1591 1591 1590 1589 1587 1586 1585 1584 1583 1582 1581 1580 1579 1577 1576 1575 1574 1573 1572 1571 1569 1567 1565 1563 1561 1560 1557 1556 1554 1552 1550 1548 1545 1543 1541
1594 1595 1596 1597 1597 1598 1598 1599 1599 1600 1601 1601 1601 1602 1602 1602 1602 1602 1602 1602 1601 1601 1600 1599 1599 1598 1598 1598 1597 1597 1597 1596 1595 1594 1593 1592 1591 1591 1590 1589 1589 1589 1588 1587 1585 1584 1582 1581 1580 1579 1578 1577 1576 1574 1573 1573 1572 1571 1570 1568 1566 1565 1563 1561 1559 1557 1556 1554 1552 1550 1548 1546 1543 1541
1593 1594 1595 1595 1596 1597 1597 1597 1597 1598 1599 1600 1600 1601 1601 1601 1601 1601 1601 1600 1600 1600 1599 1599 1598 1598 1597 1597 1596 1596 1596 1595 1594 1593 1592 1591 1590 1590 1588 1587 1587 1587 1586 1585 1584 1583 1582 1581 1579 1577 1576 1575 1574 1573 1572 1572 1571 1570 1569 1568 1566 1564 1563 1561 1559 1557 1556 1554 1552 1550 1548 1546 1544 1541
1591 1592 1593 1594 1595 1595 1595 1596 1596 1596 1597 1598 1598 1599 1599 1600 1600 1599 1599 1599 1599 1599 1598 1598 1597 1596 1595 1595 1596 1595 1595 1594 1594 1593 1591 1590 1589 1588 1587 1586 1585 1585 1585 1583 1581 1580 1580 1579 1577 1575 1574 1573 1572 1571 1571 1570 1570 1569 1568 1567 1565 1564 1562 1561 1559 1557 1555 1554 1552 1550 1548 1546 1543 1541
1589 1589 1591 1592 1593 1593 1594 1594 1594 1594 1594 1595 1596 1596 1597 1597 1598 1598 1598 1597 1597 1597 1597 1596 1596 1595 1594 1594 1594 1594 1594 1593 1592 1591 1590 1589 1588 1587 1586 1584 1583 1583 1582 1581 1580 1578 1577 1577 1575 1574 1573 1571 1570 1569 1569 1569 1568 1567 1566 1565 1564 1563 1562 1560 1558 1557 1555 1553 1551 1549 1547 1545 1543 1541
1586 1587 1588 1589 1589 1591 1591 1592 1591 1591 1591 1592 1593 1594 1594 1594 1595 1595 1595 1595 1595 1595 1595 1594 1593 1593 1593 1592 1592 1592 1592 1591 1590 1589 1588 1588 1587 1585 1584 1582 1581 1581 1580 1579 1578 1576 1575 1574 1573 1571 1571 1570 1569 1568 1567 1567 1566 1566 1565 1564 1563 1562 1561 1559 1558 1556 1554 1553 1551 1549 1547 1545 1543 1541
1584 1584 1585 1585 1586 1587 1588 1589 1589 1589 1589 1589 1590 1591 1591 1591 1592 1592 1592 1593 1593 1593 1592 1591 1590 1591 1591 1590 1590 1590 1590 1589 1588 1587 1586 1585 1584 1583 1581 1580 1579 1579 1578 1578 1576 1574 1572 1572 1571 1569 1569 1569 1567 1566 1565 1565 1564 1564 1563 1562 1562 1561 1560 1558 1557 1555 1554 1552 1550 1548 1546 1545 1543 1541
1581 1582 1582 1583 1583 1583 1584 1585 1586 1587 1587 1587 1587 1587 1588 1588 1588 1588 1589 1589 1590 1589 1589 1588 1588 1588 1588 1588 1587 1587 1587 1586 1586 1585 1583 1582 1581 1580 1579 1577 1577 1576 1576 1576 1574 1571 1570 1570 1569 1568 1567 1567 1565 1565 1564 1563 1563 1562 1561 1561 1560 1559 1558 1557 1556 1554 1553 1551 1549 1548 1546 1544 1542 1541
1578 1579 1579 1580 1580 1580 1581 1581 1582 1583 1584 1584 1584 1584 1584 1584 1584 1584 1585 1586 1586 1586 1586 1585 1584 1584 1585 1585 1584 1584 1584 1584 1583 1582 1581 1580 1579 1577 1576 1574 1573 1573 1573 1573 1572 1569 1568 1568 1567 1566 1566 1565 1563 1563 1562 1561 1561 1560 1559 1559 1558 1557 1556 1556 1554 1553 1552 1550 1549 1547 1545 1543 1542 1540
1574 1575 1576 1576 1576 1576 1577 1578 1578 1579 1580 1581 1581 1581 1580 1580 1579 1579 1580 1581 1582 1582 1582 1582 1581 1581 1581 1581 1581 1581 1581 1581 1581 1580 1578 1577 1576 1575 1573 1571 1570 1570 1569 1570 1569 1567 1565 1565 1565 1564 1564 1563 1561 1560 1560 1559 1559 1558 1557 1557 1556 1555 1555 1554 1553 1552 1551 1550 1548 1546 1544 1543 1541 1540
1568 1569 1571 1572 1572 1572 1572 1573 1574 1575 1576 1576 1577 1577 1577 1577 1576 1576 1577 1578 1577 1578 1578 1578 1578 1577 1577 1577 1577 1577 1577 1577 1577 1576 1574 1574 1574 1572 1570 1568 1567 1567 1566 1566 1567 1565 1563 1563 1563 1562 1561 1561 1559 1558 1557 1557 1556 1556 1555 1555 1554 1553 1552 1552 1551 1550 1549 1548 1547 1545 1543 1542 1541 1539
1562 1563 1565 1566 1567 1567 1568 1568 1569 1570 1571 1571 1572 1572 1573 1573 1571 1572 1574 1575 1574 1574 1574 1574 1574 1573 1573 1574 1573 1573 1573 1573 1573 1572 1571 1571 1570 1568 1567 1566 1565 1564 1562 1562 1564 1563 1560 1560 1560 1560 1559 1558 1556 1555 1554 1554 1554 1553 1553 1553 1552 1551 1550 1550 1549 1548 1547 1547 1546 1544 1543 1541 1540 1539
1557 1557 1559 1560 1561 1562 1563 1563 1564 1564 1565 1566 1566 1568 1568 1567 1566 1568 1570 1571 1571 1571 1571 1570 1570 1569 1570 1570 1569 1569 1569 1569 1568 1568 1567 1567 1566 1565 1563 1563 1562 1560 1558 1559 1561 1560 1558 1558 1558 1557 1556 1555 1554 1553 1552 1551 1551 1551 1550 1550 1549 1548 1548 1547 1547 1546 1545 1545 1544 1543 1542 1540 1539 1538
1552 1552 1553 1553 1555 1556 1557 1558 1559 1559 1559 1560 1561 1562 1562 1561 1562 1564 1566 1566 1567 1567 1567 1566 1566 1565 1565 1565 1565 1564 1564 1564 1563 1564 1563 1563 1563 1561 1560 1559 1558 1556 1555 1556 1557 1557 1556 1555 1555 1554 1554 1553 1552 1551 1549 1548 1548 1548 1547 1547 1546 1546 1545 1545 1545 1544 1543 1543 1543 1542 1541 1540 1539 1537
1548 1548 1549 1550 1550 1550 1550 1551 1551 1552 1553 1554 1555 1555 1556 1557 1558 1559 1560 1561 1562 1562 1562 1562 1562 1562 1561 1560 1560 1559 1559 1559 1559 1559 1558 1558 1558 1558 1557 1555 1554 1553 1552 1553 1554 1554 1553 1552 1551 1552 1551 1550 1549 1549 1547 1546 1545 1545 1544 1544 1543 1542 1543 1542 1542 1542 1542 1541 1541 1541 1540 1539 1538 1537
1544 1545 1546 1547 1546 1546 1545 1545 1545 1544 1545 1546 1547 1548 1550 1552 1554 1555 1555 1556 1557 1557 1557 1557 1557 1557 1557 1557 1556 1556 1555 1555 1555 1555 1554 1553 1552 1552 1552 1552 1550 1549 1549 1550 1551 1550 1549 1548 1548 1548 1548 1547 1546 1546 1545 1544 1543 1541 1541 1541 1540 1539 1539 1539 1538 1538 1539 1540 1539 1539 1538 1538 1537 1536
1541 1541 1541 1541 1541 1541 1541 1542 1542 1541 1540 1539 1539 1540 1543 1546 1548 1550 1550 1551 1552 1552 1551 1551 1550 1551 1552 1552 1552 1552 1552 1553 1553 1553 1552 1551 1549 1548 1548 1547 1547 1546 1546 1546 1546 1546 1545 1545 1544 1544 1544 1544 1544 1543 1542 1542 1541 1539 1538 1538 1537 1535 1536 1536 1535 1534 1535 1537 1537 1537 1537 1536 1535 1535
1537 1537 1536 1536 1536 1536 1537 1537 1537 1537 1537 1536 1535 1534 1536 1538 1541 1544 1545 1546 1547 1546 1545 1545 1545 1544 1545 1546 1547 1548 1549 1549 1549 1549 1548 1548 1547 1546 1545 1544 1543 1542 1542 1542 1542 1542 1542 1541 1541 1541 1541 1540 1540 1539 1539 1539 1539 1537 1536 1536 1535 1534 1533 1533 1533 1532 1533 1533 1534 1535 1535 1535 1534 1534
1533 1532 1532 1533 1533 1532 1532 1531 1531 1531 1533 1535 1533 1531 1530 1531 1534 1537 1539 1541 1542 1541 1540 1540 1540 1539 1539 1540 1541 1542 1543 1543 1543 1543 1543 1543 1543 1543 1542 1540 1539 1538 1538 1538 1538 1538 1538 1537 1537 1537 1537 1536 1536 1535 1535 1535 1535 1535 1534 1533 1533 1532 1530 1529 1529 1529 1530 1530 1531 1532 1532 1533 1533 1532
1528 1529 1529 1529 1528 1526 1525 1525 1524 1524 1526 1529 1530 1528 1526 1525 1527 1530 1533 1535 1536 1536 1536 1536 1535 1534 1535 1536 1535 1535 1536 1535 1535 1536 1537 1537 1536 1537 1538 1536 1534 1533 1533 1533 1533 1534 1534 1534 1533 1533 1532 1532 1532 1531 1531 1531 1530 1531 1531 1530 1530 1528 1527 1526 1526 1526 1527 1528 1528 1528 1529 1530 1530 1530
1524 1524 1523 1523 1521 1520 1519 1518 1518 1518 1520 1522 1523 1524 1523 1522 1522 1524 1527 1529 1529 1530 1531 1532 1531 1530 1531 1530 1529 1529 1529 1528 1528 1529 1530 1530 1529 1531 1532 1530 1528 1528 1528 1528 1528 1528 1528 1529 1529 1528 1528 1528 1527 1527 1527 1526 1526 1527 1527 1527 1527 1525 1524 1523 1523 1523 1523 1525 1525 1525 1526 1527 1527 1527
1519 1518 1518 1517 1515 1514 1513 1513 1513 1514 1515 1516 1518 1519 1519 1518 1518 1519 1520 1521 1522 1524 1526 1526 1526 1526 1526 1525 1524 1524 1523 1521 1521 1523 1523 1523 1523 1524 1525 1523 1522 1522 1523 1522 1523 1524 1524 1524 1524 1524 1524 1524 1523 1523 1523 1522 1522 1523 1523 1523 1524 1523 1521 1521 1520 1520 1521 1521 1522 1522 1523 1524 1524 1524
1515 1514 1514 1513 1511 1510 1510 1508 1508 1509 1511 1512 1514 1514 1514 1513 1512 1512 1512 1512 1514 1517 1519 1520 1520 1520 1520 1519 1519 1518 1516 1515 1515 1517 1517 1518 1518 1518 1518 1517 1516 1516 1517 1517 1517 1518 1519 1519 1519 1520 1520 1520 1519 1518 1518 1518 1518 1518 1518 1519 1519 1519 1519 1518 1517 1517 1517 1518 1519 1519 1520 1520 1521 1521
1511 1511 1511 1509 1508 1508 1506 1504 1503 1504 1505 1507 1509 1510 1510 1510 1509 1507 1506 1505 1505 1507 1510 1513 1515 1515 1514 1513 1513 1512 1510 1509 1510 1511 1512 1512 1512 1512 1511 1510 1509 1510 1511 1511 1511 1513 1514 1514 1514 1515 1515 1515 1514 1513 1513 1514 1514 1514 1514 1514 1514 1515 1515 1514 1514 1514 1513 1514 1515 1515 1516 1517 1518 1518
1507 1508 1508 1506 1505 1504 1503 1501 1500 1500 1500 1502 1503 1504 1505 1505 1506 1506 1504 1503 1502 1500 1501 1506 1510 1511 1509 1508 1507 1506 1505 1505 1505 1505 1505 1506 1506 1506 1505 1503 1502 1504 1505 1505 1506 1508 1509 1509 1510 1509 1509 1509 1509 1507 1505 1507 1508 1509 1509 1509 1509 1510 1511 1511 1510 1510 1509 1509 1511 1511 1511 1512 1514 1515
1502 1503 1504 1502 1501 1500 1499 1498 1498 1498 1497 1498 1499 1499 1499 1500 1501 1502 1502 1501 1499 1497 1496 1499 1504 1506 1506 1504 1502 1500 1499 1499 1499 1498 1498 1499 1500 1499 1499 1497 1497 1498 1498 1499 1500 1502 1504 1504 1505 1504 1504 1504 1503 1500 1499 1501 1503 1504 1504 1505 1504 1505 1507 1507 1506 1505 1504 1504 1505 1506 1507 1508 1509 1511
1496 1498 1498 1497 1497 1496 1495 1494 1495 1495 1495 1494 1494 1493 1493 1494 1495 1496 1497 1496 1494 1493 1492 1494 1497 1501 1502 1500 1497 1495 1493 1493 1492 1491 1491 1492 1493 1493 1493 1492 1492 1492 1493 1493 1494 1496 1497 1498 1499 1498 1498 1499 1497 1495 1495 1496 1497 1497 1499 1500 1500 1502 1502 1502 1501 1500 1500 1499 1499 1500 1502 1504 1505 1506
1491 1492 1492 1492 1492 1492 1491 1489 1489 1490 1490 1490 1489 1488 1488 1489 1490 1490 1491 1490 1489 1489 1488 1488 1491 1495 1496 1494 1491 1489 1487 1486 1486 1485 1485 1486 1487 1487 1487 1487 1487 1487 1488 1488 1488 1489 1491 1491 1492 1493 1494 1493 1492 1491 1492 1493 1492 1492 1494 1496 1497 1498 1497 1496 1495 1495 1495 1495 1496 1497 1498 1500 1502 1503
1487 1487 1487 1488 1488 1487 1487 1486 1485 1484 1484 1485 1485 1484 1483 1484 1484 1485 1484 1484 1485 1485 1484 1484 1486 1489 1488 1486 1485 1483 1482 1481 1480 1480 1480 1481 1482 1481 1482 1481 1481 1482 1483 1482 1482 1483 1483 1484 1485 1487 1488 1488 1489 1491 1492 1492 1490 1489 1490 1491 1492 1492 1492 1491 1491 1491 1490 1491 1492 1493 1494 1495 1496 1498
1484 1483 1483 1483 1483 1483 1483 1483 1482 1481 1480 1480 1481 1481 1480 1480 1480 1481 1481 1481 1481 1482 1481 1481 1481 1482 1480 1478 1478 1478 1477 1477 1477 1477 1478 1478 1478 1477 1477 1477 1477 1477 1477 1477 1476 1476 1477 1478 1480 1482 1483 1484 1486 1487 1487 1485 1484 1483 1484 1484 1485 1486 1487 1487 1487 1487 1486 1487 1488 1488 1488 1489 1491 1493
1482 1481 1480 1480 1479 1479 1479 1479 1479 1479 1478 1477 1476 1476 1477 1478 1478 1479 1479 1479 1480 1480 1480 1480 1479 1478 1475 1473 1472 1473 1475 1476 1477 1478 1478 1478 1477 1476 1475 1475 1473 1473 1473 1472 1472 1472 1473 1475 1477 1477 1477 1478 1480 1480 1478 1477 1477 1478 1479 1480 1480 1481 1482 1482 1483 1483 1483 1483 1483 1482 1483 1484 1486 1486
1480 1479 1478 1476 1475 1475 1475 1475 1475 1475 1474 1474 1474 1473 1473 1474 1475 1476 1477 1478 1478 1479 1478 1478 1477 1474 1471 1470 1470 1472 1474 1474 1474 1475 1476 1476 1476 1475 1474 1473 1472 1471 1471 1471 1471 1471 1471 1472 1472 1472 1471 1471 1472 1472 1472 1472 1473 1474 1474 1475 1475 1476 1477 1477 1478 1478 1479 1478 1476 1476 1476 1477 1477 1476
1475 1475 1474 1473 1472 1471 1470 1470 1470 1469 1469 1469 1469 1468 1468 1470 1471 1472 1473 1474 1474 1473 1472 1471 1471 1469 1467 1467 1467 1467 1466 1465 1466 1468 1470 1471 1472 1472 1472 1471 1470 1469 1469 1468 1467 1468 1468 1467 1466 1466 1465 1465 1465 1465 1466 1466 1467 1468 1469 1470 1469 1469 1470 1472 1472 1473 1473 1472 1471 1470 1471 1471 1471 1470
1470 1470 1470 1470 1469 1468 1467 1467 1466 1465 1464 1464 1464 1463 1464 1465 1466 1467 1467 1467 1467 1466 1464 1463 1463 1463 1463 1462 1460 1459 1458 1459 1461 1463 1464 1466 1467 1468 1467 1466 1464 1463 1462 1460 1459 1460 1461 1461 1460 1459 1457 1457 1457 1458 1459 1460 1461 1462 1464 1465 1465 1464 1464 1465 1467 1467 1466 1466 1465 1465 1466 1466 1466 1467